Home   Weather   Emden   Past weeks

Flag for Germany Past Weather in Emden, Lower Saxony, Germany — Yesterday and Last 2 Weeks

Now
72 °F

Sunny.


Feels Like: 77 °F
Forecast: 57 / 77 °F
Wind: 5 mph from Southeast

Location: Emden-Koenigspolder

Current Time: Jul 21, 2017 at 5:21:19 pm

Latest Report: Jul 21, 2017 at 4:00 pm


Visibility: 11 mi

Pressure: 29.95 "Hg

Humidity: 50%

Dew Point: 52 °F

Location of EmdenLocation

Past Weather in Emden — Graph

°F

Emden Temperature Yesterday

Maximum temperature yesterday: 73 °F (at 6:00 pm)
Minimum temperature yesterday: 64 °F (at 6:00 am)
Average temperature yesterday: 67 °F

High & Low Weather Summary for the Past Weeks

 TemperatureHumidityPressure
High81 °F (Jul 19, 3:00 pm)100% (Jul 9, 4:00 am)30.22 "Hg (Jul 9, 4:00 am)
Low46 °F (Jul 9, 6:00 am)44% (Jul 9, 7:00 pm)29.72 "Hg (Jul 12, 10:00 am)
Average63 °F78%29.98 "Hg
* Reported Jul 6 4:00 pm — Jul 21 4:00 pm, Emden. Weather by CustomWeather, © 2017

Note: Actual official high and low records may vary slightly from our data, if they occured in-between our weather recording intervals... More about our weather records

Advertising

Emden Weather History for the Previous 24 Hours

Scroll right to see more
 ConditionsComfort  
Time TempWeatherWind HumidityBarometerVisibility
4:00 pm
Fri, Jul 21
72 °FSunny.5 mph50%29.95 "Hg11 mi
3:00 pm71 °FPartly sunny.5 mph50%29.96 "Hg14 mi
1:00 pm67 °FScattered clouds.2 mph57%29.97 "Hg22 mi
12:00 pm67 °FPassing clouds.3 mph58%29.98 "Hg6 mi
10:00 am65 °FSunny.2 mph60%29.97 "Hg9 mi
9:00 am62 °FScattered clouds.2 mph71%29.96 "Hg11 mi
7:00 am57 °FSunny.2 mph89%29.94 "Hg11 mi
6:00 am56 °FOvercast.2 mph93%29.93 "Hg11 mi
4:00 am58 °FPassing clouds.2 mph88%29.90 "Hg14 mi
3:00 am60 °FOvercast.3 mph87%29.90 "Hg12 mi
1:00 am60 °FPassing clouds.5 mph89%29.87 "Hg16 mi
12:00 am63 °FOvercast.7 mph89%29.85 "Hg12 mi
10:00 pm
Thu, Jul 20
66 °FLight rain. Overcast.1 mph95%29.80 "Hg5 mi
9:00 pm66 °FSunny.1 mph94%29.78 "Hg5 mi
7:00 pm65 °FOvercast.8 mph94%29.74 "Hg4 mi
6:00 pm73 °FOvercast.2 mph71%29.72 "Hg12 mi
Weather by CustomWeather, © 2017

See weather overviewHow to use our weather pages